Sand Point, AK

9:56 PM AKST on February 20, 2017 (GMT -0900)
Sand Point

Weather History for PASD - October, 2012

Change the Weather History Date:

Friday, October 12, 2012

  Actual Average Record
Temperature  
Mean Temperature 46 °F -  
Max Temperature 51 °F 44 °F 53 °F (1993)
Min Temperature 42 °F 38 °F 32 °F (1991)
Degree Days  
Heating Degree Days 18    
Moisture  
Dew Point 44 °F    
Average Humidity 88    
Maximum Humidity 100    
Minimum Humidity 71    
Precipitation  
Precipitation 0.00 in - - ()
Sea Level Pressure  
Sea Level Pressure 29.14 in    
Wind  
Wind Speed 11 mph (NNE)    
Max Wind Speed 24 mph    
Max Gust Speed 30 mph    
Visibility 10 miles    
Events      
Averages and records for this station are not official NWS values.
T = Trace of Precipitation, MM = Missing Value Source: NWS Daily Summary

Daily Weather History Graph

Daily Weather History Graph

Search for Another Location

Airport or City:

Trip Planner

Search our weather history database for the weather conditions in past years. The results will help you decide how hot, cold, wet, or windy it might be!

Date:

Astronomy

Oct. 12, 2012 Rise Set
Actual Time 9:07 AM AKDT 7:48 PM AKDT
Civil Twilight 8:30 AM AKDT 8:24 PM AKDT
Nautical Twilight 7:48 AM AKDT 9:06 PM AKDT
Astronomical Twilight 7:05 AM AKDT 9:49 PM AKDT
Moon 5:38 AM AKDT (10/12) 6:23 PM AKDT (10/12)
Length of Visible Light 11h 53m
Length of Day
10h 40m
Waning Crescent, 10% of the Moon is Illuminated
Oct 12
Waning Crescent
Oct 15
New
Oct 21
First Quarter
Oct 29
Full
Nov 6
Last Quarter

Hourly Weather History & Observations

Time (AKDT) Temp. Windchill Dew Point Humidity Pressure Visibility Wind Dir Wind Speed Gust Speed Precip Events Conditions
12:16 AM 48.2 °F - 46.4 °F 93% 29.26 in 10.0 mi NE 13.8 mph 21.9 mph N/A   Overcast
12:36 AM 48.2 °F - 46.4 °F 93% 29.25 in 7.0 mi NE 8.1 mph 19.6 mph N/A   Overcast
12:56 AM 48.2 °F - 46.4 °F 93% 29.25 in 10.0 mi ENE 10.4 mph 25.3 mph N/A   Overcast
1:16 AM 48.2 °F - 46.4 °F 93% 29.24 in 8.0 mi NE 10.4 mph 21.9 mph N/A   Overcast
1:36 AM 46.4 °F 41.1 °F 46.4 °F 100% 29.24 in 7.0 mi NE 11.5 mph 21.9 mph N/A   Overcast
1:56 AM 46.4 °F 40.7 °F 46.4 °F 100% 29.24 in 8.0 mi NE 12.7 mph 20.7 mph N/A   Overcast
2:16 AM 48.2 °F - 46.4 °F 93% 29.23 in 10.0 mi NE 8.1 mph 20.7 mph N/A   Overcast
2:36 AM 48.2 °F - 46.4 °F 93% 29.22 in 10.0 mi NE 10.4 mph 19.6 mph N/A   Overcast
2:56 AM 48.2 °F - 46.4 °F 93% 29.22 in 10.0 mi NNE 16.1 mph 24.2 mph N/A   Overcast
3:16 AM 46.4 °F 41.5 °F 46.4 °F 100% 29.21 in 9.0 mi NNE 10.4 mph 20.7 mph N/A   Overcast
3:36 AM 46.4 °F 41.5 °F 46.4 °F 100% 29.21 in 10.0 mi ENE 10.4 mph 19.6 mph N/A   Overcast
3:56 AM 48.2 °F - 46.4 °F 93% 29.20 in 10.0 mi NE 10.4 mph 29.9 mph N/A   Overcast
4:16 AM 48.2 °F - 44.6 °F 87% 29.20 in 10.0 mi NE 11.5 mph 24.2 mph N/A   Overcast
4:36 AM 48.2 °F - 44.6 °F 87% 29.19 in 10.0 mi NE 6.9 mph 23.0 mph N/A   Overcast
4:56 AM 46.4 °F 41.9 °F 46.4 °F 100% 29.18 in 8.0 mi NNE 9.2 mph 24.2 mph N/A   Overcast
5:16 AM 48.2 °F - 44.6 °F 87% 29.18 in 10.0 mi NE 8.1 mph 19.6 mph N/A   Overcast
5:36 AM 48.2 °F - 44.6 °F 87% 29.17 in 10.0 mi NNE 12.7 mph 18.4 mph N/A   Overcast
5:56 AM 48.2 °F - 44.6 °F 87% 29.16 in 10.0 mi NNE 13.8 mph 23.0 mph N/A   Overcast
6:16 AM 46.4 °F 41.1 °F 44.6 °F 93% 29.16 in 10.0 mi NNE 11.5 mph 19.6 mph N/A   Overcast
6:36 AM 46.4 °F 40.7 °F 44.6 °F 93% 29.16 in 10.0 mi NNE 12.7 mph 19.6 mph N/A   Overcast
6:56 AM 48.2 °F - 44.6 °F 87% 29.15 in 10.0 mi NNE 8.1 mph 16.1 mph N/A   Overcast
7:16 AM 48.2 °F - 44.6 °F 87% 29.15 in 10.0 mi NNE 12.7 mph 24.2 mph N/A   Overcast
7:36 AM 48.2 °F - 44.6 °F 87% 29.15 in 10.0 mi NNE 10.4 mph 18.4 mph N/A   Overcast
7:56 AM 46.4 °F 42.9 °F 44.6 °F 93% 29.15 in 10.0 mi NNE 6.9 mph - N/A   Overcast
8:16 AM 46.4 °F 42.4 °F 44.6 °F 93% 29.15 in 10.0 mi NNE 8.1 mph - N/A   Overcast
8:36 AM 46.4 °F 42.4 °F 46.4 °F 100% 29.14 in 10.0 mi NNE 8.1 mph - N/A   Overcast
8:56 AM 46.4 °F 42.4 °F 46.4 °F 100% 29.14 in 10.0 mi NNE 8.1 mph - N/A   Overcast
9:16 AM 46.4 °F 42.9 °F 46.4 °F 100% 29.14 in 10.0 mi NNE 6.9 mph - N/A   Overcast
9:36 AM 46.4 °F 44.3 °F 46.4 °F 100% 29.14 in 10.0 mi NE 4.6 mph - N/A   Overcast
9:56 AM 46.4 °F 43.5 °F 46.4 °F 100% 29.14 in 10.0 mi NE 5.8 mph - N/A   Mostly Cloudy
11:16 AM 48.2 °F - 44.6 °F 87% 29.14 in 10.0 mi NNE 8.1 mph - N/A   Overcast
11:36 AM 48.2 °F - 46.4 °F 93% 29.14 in 10.0 mi North 4.6 mph - N/A   Overcast
11:56 AM 48.2 °F - 46.4 °F 93% 29.14 in 10.0 mi NNE 5.8 mph - N/A   Mostly Cloudy
12:16 PM 48.2 °F - 46.4 °F 93% 29.13 in 10.0 mi NNE 5.8 mph - N/A   Mostly Cloudy
12:56 PM 51.8 °F - 46.4 °F 82% 29.13 in 10.0 mi NNW 5.8 mph - N/A   Mostly Cloudy
1:16 PM 50.0 °F - 46.4 °F 87% 29.13 in 10.0 mi North 5.8 mph - N/A   Mostly Cloudy
1:36 PM 50.0 °F - 46.4 °F 87% 29.13 in 10.0 mi North 4.6 mph - N/A   Mostly Cloudy
1:56 PM 50.0 °F - 44.6 °F 82% 29.12 in 10.0 mi NNE 5.8 mph - N/A   Mostly Cloudy
2:16 PM 50.0 °F - 46.4 °F 87% 29.12 in 10.0 mi NNE 5.8 mph - N/A   Mostly Cloudy
2:36 PM 50.0 °F - 46.4 °F 87% 29.11 in 10.0 mi NNE 6.9 mph - N/A   Mostly Cloudy
2:56 PM 50.0 °F - 46.4 °F 87% 29.11 in 10.0 mi North 5.8 mph - N/A   Overcast
3:16 PM 50.0 °F - 46.4 °F 87% 29.11 in 10.0 mi North 5.8 mph - N/A   Overcast
3:36 PM 50.0 °F - 46.4 °F 87% 29.10 in 10.0 mi NNW 5.8 mph - N/A   Overcast
3:56 PM 50.0 °F - 46.4 °F 87% 29.10 in 10.0 mi NNE 6.9 mph - N/A   Overcast
4:16 PM 50.0 °F - 46.4 °F 87% 29.09 in 10.0 mi North 4.6 mph - N/A   Overcast
4:36 PM 50.0 °F - 44.6 °F 82% 29.09 in 10.0 mi North 9.2 mph - N/A   Overcast
4:56 PM 50.0 °F - 44.6 °F 82% 29.08 in 10.0 mi North 10.4 mph - N/A   Overcast
5:16 PM 50.0 °F - 44.6 °F 82% 29.08 in 10.0 mi North 11.5 mph - N/A   Overcast
5:36 PM 48.2 °F - 44.6 °F 87% 29.08 in 10.0 mi North 11.5 mph - N/A   Overcast
5:56 PM 48.2 °F - 44.6 °F 87% 29.07 in 10.0 mi North 15.0 mph - N/A   Overcast
6:16 PM 48.2 °F - 44.6 °F 87% 29.07 in 10.0 mi North 17.3 mph 21.9 mph N/A   Overcast
6:36 PM 48.2 °F - 42.8 °F 82% 29.07 in 10.0 mi North 16.1 mph - N/A   Overcast
6:56 PM 48.2 °F - 42.8 °F 82% 29.08 in 10.0 mi North 19.6 mph 24.2 mph N/A   Overcast
7:16 PM 46.4 °F 39.0 °F 41.0 °F 81% 29.08 in 10.0 mi North 19.6 mph 26.5 mph N/A   Overcast
7:36 PM 46.4 °F 38.5 °F 41.0 °F 81% 29.08 in 10.0 mi NNW 21.9 mph - N/A   Overcast
7:56 PM 46.4 °F 39.0 °F 41.0 °F 81% 29.08 in 10.0 mi NNW 19.6 mph - N/A   Overcast
8:16 PM 46.4 °F 39.5 °F 39.2 °F 76% 29.09 in 10.0 mi NNW 17.3 mph - N/A   Overcast
8:36 PM 44.6 °F 36.9 °F 39.2 °F 81% 29.09 in 10.0 mi NNW 18.4 mph - N/A   Overcast
8:56 PM 44.6 °F 36.4 °F 39.2 °F 81% 29.09 in 10.0 mi North 20.7 mph 25.3 mph N/A   Mostly Cloudy
9:16 PM 44.6 °F 36.4 °F 39.2 °F 81% 29.09 in 10.0 mi North 20.7 mph 25.3 mph N/A   Clear
9:56 PM 42.8 °F 33.3 °F 37.4 °F 81% 29.09 in 10.0 mi North 24.2 mph 29.9 mph N/A   Clear
10:16 PM 42.8 °F 34.0 °F 37.4 °F 81% 29.10 in 10.0 mi North 20.7 mph - N/A   Clear
10:36 PM 42.8 °F 34.5 °F 37.4 °F 81% 29.10 in 10.0 mi NNW 18.4 mph - N/A   Clear
10:56 PM 42.8 °F 34.3 °F 37.4 °F 81% 29.10 in 10.0 mi North 19.6 mph - N/A   Clear
11:16 PM 44.6 °F 37.8 °F 35.6 °F 71% 29.10 in 10.0 mi North 15.0 mph 24.2 mph N/A   Clear
11:36 PM 42.8 °F 34.5 °F 35.6 °F 76% 29.10 in 10.0 mi North 18.4 mph - N/A   Clear
11:56 PM 42.8 °F 34.5 °F 35.6 °F 76% 29.10 in 10.0 mi North 18.4 mph - N/A   Clear